Location: Melizzano
(41.1500°N, 14.5000°E)
Time: 18:49:01
(UTC+00:00)

Cosmos 1386 Rocket - Pass Details

Date: 11 May 2021
Orbit: 930 x 1005 km, 83.0° (Epoch: 20 June)

Event Time Altitude Azimuth Distance (km) Brightness Sun altitude
Rises 19:01:47 0° 354° (N) 3,595 8.1 -9.4°
Reaches altitude 10° 19:04:17 10° 357° (N) 2,651 7.3 -9.8°
Maximum altitude 19:10:19 71° 81° (E) 994 4.4 -10.7°
Drops below altitude 10° 19:16:24 10° 166° (SSE) 2,672 6.3 -11.6°
Enters shadow 19:17:17 - 167° (SSE) 3,005 6.6 -11.7°
